Dewpoint
20 12 5 18 20 18 18 17 17 18 15 25 29 30 32 54 56 55 57 60 60 60 62 64 65 66 68 70 70 70 69 67 68 67 67 66 65 65 66 68 69 70 71 68
15 7 14 18 20 18 19 18 13 17 20 23 24 24 31 50 53 54 56 58 59 60 62 64 66 67 68 69 70 70 69 68 67 65 65 66 64 66 67 69 69 70 71 70
10 13 17 17 19 17 15 11 11 19 21 22 22 22 27 37 51 49 55 57 59 59 61 64 66 67 67 68 69 70 69 67 65 66 66 67 67 66 68 68 69 70 70 70
15 16 17 19 18 14 16 15 12 22 19 14 25 12 26 29 32 45 53 52 57 59 61 64 66 67 67 68 69 69 67 66 65 66 65 64 64 66 68 68 68 68 68 68
11 20 19 18 20 17 18 16 22 22 20 20 19 14 21 32 36 36 52 53 54 58 61 63 65 66 68 68 68 68 66 66 65 65 65 66 67 67 67 67 68 67 68 68
20 22 20 18 21 17 23 19 22 24 18 9 23 23 19 28 34 38 41 56 56 59 61 63 66 67 68 68 68 67 66 65 65 65 66 67 69 67 67 66 65 65 66 67
19 18 21 23 19 19 19 18 14 10 9 8 28 27 26 32 39 44 45 48 58 60 63 65 66 66 67 67 67 68 66 64 65 65 65 69 68 67 67 65 64 65 64 65
11 11 20 24 22 20 18 19 15 9 7 15 28 23 22 37 46 53 50 48 59 61 63 65 66 66 67 67 68 67 66 64 65 65 67 70 68 66 65 65 65 64 64 64
19 15 24 24 20 21 20 18 21 21 23 18 21 27 31 40 47 52 56 60 60 62 63 65 67 67 68 67 67 66 65 63 64 66 69 68 67 66 65 66 65 64 65 63
22 17 19 22 21 22 23 23 18 21 19 15 20 25 23 33 42 49 56 58 61 63 64 65 67 68 67 67 67 66 65 65 66 67 69 68 66 65 65 65 65 65 64 64
22 21 19 22 21 21 20 19 22 23 23 15 14 15 33 36 43 46 54 57 59 62 64 65 67 68 68 68 68 69 69 69 67 67 67 66 65 65 65 64 64 64 64 64
22 22 17 17 22 24 22 23 26 18 22 23 21 15 33 38 45 49 50 55 56 58 63 65 66 68 68 68 69 70 69 67 67 66 66 66 65 64 65 64 64 64 63 63
23 24 17 18 23 25 25 22 25 28 29 25 18 17 41 47 48 49 50 54 55 56 60 65 66 67 68 68 68 69 68 68 65 66 66 66 64 64 64 64 64 63 62 62
26 26 22 12 20 26 25 26 25 27 22 26 22 24 29 36 46 49 50 51 51 55 61 64 65 67 68 68 68 68 67 66 66 66 66 66 65 64 64 64 63 63 62 61
29 20 24 23 21 24 25 25 25 26 28 20 26 26 30 39 47 50 50 51 51 53 62 63 65 66 67 68 67 65 64 64 64 66 65 66 65 64 64 64 64 63 62 61
32 26 27 25 25 23 23 27 27 27 27 28 28 30 43 49 50 50 50 50 52 53 55 63 64 65 65 66 66 66 63 61 63 65 66 66 65 64 64 64 63 62 61 60
34 30 27 22 30 27 24 27 28 31 30 32 27 36 45 49 49 49 51 52 52 52 55 59 64 64 64 65 65 65 65 61 63 65 67 66 65 64 64 64 62 61 61 60
39 33 34 29 26 21 28 45 39 39 40 41 42 46 48 50 52 54 55 53 59 63 63 59 64 65 64 64 63 64 65 64 63 67 66 66 65 64 64 64 63 62 61 59
41 36 32 28 23 29 35 43 40 37 32 45 45 48 49 52 49 51 58 61 61 62 62 63 65 66 64 63 63 63 64 65 66 66 65 65 65 65 65 64 63 61 60 59
33 38 31 32 21 20 32 39 45 42 30 46 48 48 49 51 43 48 59 61 61 61 62 62 65 65 64 63 63 63 63 64 65 67 66 66 66 65 64 63 63 62 61 59
25 29 29 30 27 29 36 42 44 28 29 39 51 51 51 47 51 60 61 62 61 60 61 62 63 63 64 63 63 62 64 64 64 64 64 65 65 64 64 64 64 61 60 57
24 24 26 31 28 23 55 46 34 45 52 52 53 54 54 57 60 60 61 61 61 60 60 61 61 61 62 64 63 62 60 61 62 62 62 63 64 64 65 64 63 61 58 55
30 36 31 29 28 50 57 57 58 59 56 54 53 55 56 58 59 60 60 60 60 60 60 60 61 60 60 61 61 59 59 61 60 60 60 60 61 61 63 64 61 58 56 53
41 46 43 44 51 54 56 56 58 60 59 57 54 55 56 57 59 59 60 59 59 59 59 58 58 59 58 59 59 59 59 60 60 59 58 57 57 57 59 61 60 57 55 54
39 46 48 48 50 53 54 57 59 60 60 59 58 57 57 59 60 60 60 59 59 59 58 59 58 58 58 59 58 58 57 57 56 55 55 55 54 53 52 50 53 56 56 55
47 45 42 45 52 53 54 57 59 60 59 60 59 60 60 60 59 60 59 59 59 58 58 57 58 57 57 56 56 57 56 56 56 55 55 54 53 52 51 51 50 47 51 52
Wind_Speed
3 4 7 7 4 8 5 1 5 5 2 3 8 7 9 13 16 18 19 20 19 19 13 15 15 15 15 15 17 16 15 8 7 4 4 4 7 4 2 1 2 3 5 4
2 5 4 3 5 6 2 2 3 4 6 2 2 4 3 9 12 14 15 16 18 14 14 14 15 15 14 13 14 14 11 9 7 5 3 2 5 2 3 2 3 3 4 0
4 3 4 4 4 5 3 4 2 2 3 4 2 1 1 1 9 4 12 19 19 21 18 15 14 15 13 13 13 13 11 10 9 5 6 5 4 6 4 3 3 3 2 3
3 2 4 1 5 8 5 7 3 1 1 1 6 4 5 3 9 7 8 18 21 21 18 16 16 14 13 11 11 12 11 12 9 9 6 8 8 6 2 4 5 4 4 4
3 6 4 3 3 11 3 4 6 3 3 2 4 4 2 1 4 9 7 8 16 13 16 18 18 13 12 11 13 14 11 11 9 8 6 7 7 7 8 7 5 3 2 4
3 2 4 3 3 4 14 7 6 4 1 5 1 2 2 3 5 10 8 6 9 10 14 14 13 13 11 9 10 12 13 13 10 9 9 6 9 12 10 7 4 2 2 3
3 5 3 4 3 6 4 5 2 3 5 4 3 3 5 4 7 10 13 10 6 9 13 14 15 16 14 13 11 10 12 13 11 11 8 8 11 10 10 7 5 4 4 5
10 8 7 5 7 6 5 5 4 3 4 4 2 3 1 1 6 6 8 11 5 7 11 13 12 12 11 12 13 11 12 13 12 10 8 7 8 7 9 8 7 7 6 6
6 6 2 4 2 3 6 5 4 8 1 3 1 4 9 3 3 3 4 2 3 5 8 10 10 10 10 9 9 8 10 13 11 8 8 9 8 6 10 10 8 7 6 7
4 3 1 2 5 9 3 12 5 1 5 5 2 4 4 4 6 1 2 0 1 2 3 7 10 10 8 8 7 7 7 6 8 9 9 11 9 8 8 11 11 10 10 9
8 3 3 2 4 8 5 5 5 5 0 5 4 5 6 7 4 1 2 4 5 6 4 8 12 13 10 9 7 7 7 8 8 10 14 13 10 10 8 10 12 11 10 8
10 5 10 10 0 1 2 6 8 8 6 1 2 5 1 5 3 2 1 5 8 8 3 7 10 11 11 10 8 8 10 11 9 7 13 9 10 10 11 12 13 11 10 9
13 5 6 2 3 3 5 5 4 9 4 8 7 3 3 3 6 4 3 6 4 6 6 9 12 13 13 13 11 11 10 11 13 11 6 10 10 9 10 11 12 12 11 10
13 6 7 12 4 4 5 7 9 5 7 9 7 4 5 4 9 7 4 4 4 4 3 9 13 14 12 12 11 12 12 12 11 10 11 10 8 6 8 10 12 11 10 9
8 12 9 6 5 4 7 12 11 8 9 7 7 8 4 5 2 5 5 3 4 5 4 6 11 12 12 12 10 9 10 15 17 11 11 10 8 8 8 7 9 11 9 8
1 6 8 6 5 10 8 9 9 3 8 3 4 5 6 4 8 9 4 1 3 3 3 5 13 15 14 16 16 14 13 16 16 15 13 13 13 10 8 9 8 10 11 8
4 7 7 8 4 9 8 12 11 5 7 5 7 2 4 5 7 6 3 3 4 5 4 2 9 14 14 13 11 10 10 12 11 7 11 12 13 14 11 9 9 7 11 10
7 7 3 6 8 9 2 2 4 5 7 10 3 2 5 13 9 4 2 1 4 6 6 0 4 11 9 6 9 10 12 13 11 9 11 13 14 15 14 9 8 9 12 11
1 6 6 7 9 1 1 3 5 6 5 6 4 4 11 11 15 12 7 6 5 5 5 6 8 8 8 9 9 10 11 12 12 11 13 13 10 13 15 13 13 11 12 10
6 7 4 4 6 5 2 4 3 2 3 5 7 8 14 9 6 6 5 7 8 7 5 6 5 5 8 9 10 10 10 10 9 10 13 14 11 13 15 15 9 6 9 10
3 4 3 5 2 1 1 3 4 6 2 11 1 5 9 5 6 8 5 7 8 8 8 8 10 8 5 8 11 11 8 9 8 6 7 8 6 9 7 7 9 11 11 11
2 3 2 3 2 5 10 3 4 2 4 6 4 10 14 14 11 10 7 4 6 7 8 9 10 8 7 4 9 9 9 8 10 11 7 5 4 4 9 13 14 16 16 14
2 1 2 3 1 1 1 4 8 6 6 3 5 13 16 16 11 11 9 6 4 4 4 5 7 7 8 7 8 11 11 10 8 8 7 4 1 4 8 13 14 13 17 17
2 2 1 3 2 1 5 4 7 6 3 2 7 11 13 13 14 13 11 10 9 7 6 4 3 4 6 8 9 9 8 8 8 7 6 4 4 1 2 9 14 15 15 15
2 1 0 4 3 2 3 4 5 2 5 8 10 10 13 15 14 14 12 10 8 9 8 7 6 6 6 7 8 7 7 8 8 8 6 6 6 6 10 12 6 10 8 13
2 1 2 2 2 1 2 1 2 4 6 7 12 12 10 13 14 13 10 9 7 6 6 5 6 6 5 8 7 5 4 6 8 8 7 6 8 9 8 12 16 19 13 13
Wind_Direction
29 216 207 191 144 125 126 138 274 278 278 237 204 222 228 201 212 213 201 199 208 213 217 212 206 200 200 190 193 190 188 176 141 156 202 221 200 222 131 83 339 299 333 234
172 221 191 149 171 149 136 180 251 290 349 183 188 180 320 205 232 238 216 213 218 201 202 204 197 192 197 194 196 189 178 173 181 185 204 176 163 185 100 52 30 6 273 184
190 140 127 220 178 157 178 205 208 291 340 71 2 125 313 233 248 263 228 220 215 210 202 199 200 198 190 191 190 184 168 172 171 171 156 153 156 141 143 117 101 106 100 77
221 216 228 204 199 182 195 213 193 256 336 11 359 287 249 303 311 326 284 215 215 210 202 199 199 196 191 183 176 174 161 161 166 160 180 171 157 143 122 124 115 100 48 25
167 168 177 278 213 186 130 121 139 101 93 196 20 279 265 284 252 341 353 213 222 211 195 202 200 185 181 168 171 167 164 161 165 163 173 158 143 133 134 134 121 73 49 21
241 271 266 243 65 168 141 109 76 77 121 241 25 273 212 301 330 317 330 266 225 200 194 198 183 158 166 171 165 163 166 161 163 173 162 155 155 148 150 139 146 127 125 73
230 230 255 210 132 105 142 157 233 244 214 240 146 244 256 279 324 289 293 290 222 183 181 185 179 167 165 182 181 175 172 163 165 172 170 175 161 153 144 141 122 105 71 51
200 208 200 177 217 170 169 207 216 241 219 183 159 228 225 75 304 313 282 257 236 187 187 183 183 165 170 181 174 176 177 169 173 170 175 165 148 146 126 110 99 75 55 42
165 223 263 224 140 171 168 173 103 116 110 253 271 268 285 127 250 4 25 93 193 211 188 165 157 160 169 172 181 177 181 178 179 170 160 145 128 136 113 107 98 90 65 47
190 192 199 99 121 51 210 140 154 163 188 222 219 270 250 282 239 52 74 6 348 275 98 133 147 155 176 175 176 170 171 176 166 163 135 128 131 123 122 114 98 80 62 51
163 224 166 202 195 187 145 178 78 115 286 198 222 238 225 259 257 155 33 358 3 30 87 165 162 167 175 170 156 151 133 122 118 125 131 136 139 125 121 101 95 89 78 65
191 186 235 249 126 329 183 194 172 199 199 177 265 226 37 222 223 132 80 32 45 47 129 152 164 162 176 164 150 139 132 118 115 129 144 141 138 142 130 117 103 93 85 71
173 201 205 198 155 157 206 172 151 112 115 181 197 228 121 211 233 197 133 87 59 51 97 151 164 175 180 167 157 150 154 143 136 134 133 155 138 141 128 114 108 103 97 86
169 161 191 211 173 158 172 180 172 144 179 170 222 255 287 237 225 193 133 104 80 53 115 161 168 178 182 167 170 162 159 159 158 139 152 151 144 134 131 128 116 108 102 94
186 201 193 204 206 210 194 177 179 188 169 191 174 210 282 13 23 135 165 120 90 69 98 165 167 171 185 167 167 172 159 160 148 149 165 149 148 141 129 116 114 112 103 94
166 183 168 181 183 200 209 197 191 208 170 142 160 241 43 78 111 121 141 26 38 14 73 161 175 179 192 178 178 188 179 185 166 156 162 157 151 142 142 136 130 125 116 99
158 146 163 198 164 161 208 198 187 177 195 173 198 113 51 108 116 117 114 84 36 354 358 175 195 196 195 197 176 182 185 171 184 158 156 159 159 149 160 153 150 149 123 110
142 123 84 141 147 197 99 337 211 212 217 215 288 334 100 121 107 90 84 82 42 15 359 271 203 213 192 197 165 163 169 173 179 171 161 175 182 161 150 160 165 162 129 124
80 133 112 162 185 339 173 154 161 187 206 208 215 149 129 140 127 93 83 57 27 10 330 302 271 223 190 173 175 166 174 171 176 161 171 203 194 163 156 177 179 159 131 134
49 74 123 145 163 174 46 5 348 280 190 198 201 159 149 164 164 105 73 67 52 22 9 12 46 140 161 163 171 172 182 186 190 174 194 190 184 176 176 189 163 145 131 146
53 12 108 140 105 152 208 314 302 189 100 355 271 159 143 123 101 116 97 69 65 43 22 38 70 78 101 156 170 186 182 170 125 109 123 161 166 183 192 170 139 144 147 147
107 157 179 111 158 203 2 281 217 350 325 338 121 134 118 121 122 123 115 94 68 52 38 44 63 61 62 130 171 148 143 124 123 123 126 135 152 206 212 189 162 160 158 150
155 20 52 187 246 272 73 331 322 300 300 360 154 161 148 144 148 148 149 146 126 107 57 46 64 72 60 75 140 143 139 140 141 130 133 142 193 254 240 195 168 168 156 153
68 52 274 262 116 292 28 347 335 316 309 14 116 158 165 153 153 154 163 167 166 163 147 123 94 86 82 81 95 124 150 159 154 143 139 145 155 111 59 153 158 157 158 154
15 307 351 279 266 276 114 18 339 32 91 100 104 135 145 148 161 169 177 183 176 171 167 166 160 140 109 93 92 108 127 137 135 133 134 115 100 118 106 86 91 143 139 161
191 185 240 293 291 269 132 309 5 123 109 112 124 129 150 161 164 174 176 175 171 180 181 161 139 133 139 118 112 112 125 144 143 131 126 127 126 120 115 115 94 58 91 114